Stations météo

Publicité
Cazaux, France (7502): Température de l'air & dewpoint: 26.06.2020 14:00:00 - 02.07.2020 14:00:00 (CEST)Cazaux, France (7502): Température de l'air 5cm: 26.06.2020 14:00:00 - 02.07.2020 14:00:00 (CEST)Cazaux, France (7502): Température de l'air -20cm & Température de l'air -100cm: 26.06.2020 14:00:00 - 02.07.2020 14:00:00 (CEST)Cazaux, France (7502): Vitesse du vent & gusts: 26.06.2020 14:00:00 - 02.07.2020 14:00:00 (CEST)Cazaux, France (7502): Direction du vent: 26.06.2020 14:00:00 - 02.07.2020 14:00:00 (CEST)Cazaux, France (7502): reduced air pressure: 26.06.2020 14:00:00 - 02.07.2020 14:00:00 (CEST)Cazaux, France (7502): visibility: 26.06.2020 14:00:00 - 02.07.2020 14:00:00 (CEST)Cazaux, France (7502): Quantités de précipitations: 26.06.2020 14:00:00 - 02.07.2020 14:00:00 (CEST)
Date & Time tt [°C] td [°C] tt 5cm [°C] tt -20cm [°C] tt -100cm [°C] ff [km/h] ff [knt] fx [km/h] fx [knt] dd ppp [hPa] vv [km] rr [mm]
02.07.2020 14:00:00 20,7 13,2 24,0 21,5 21,4 12 7 24 13 WNW 1019,7 56 0,0
02.07.2020 13:00:00 21,2 14,8 22,9 21,6 21,4 10 6 21 12 WNW 1019,4 60 0,0
02.07.2020 12:00:00 19,7 15,6 21,1 21,6 21,4 6 3 11 6 W 1019,0 50 0,0
02.07.2020 11:00:00 18,6 14,7 17,7 21,7 21,4 2 1 6 4 NW 1018,6 52 0,0
02.07.2020 10:00:00 17,2 14,7 16,3 21,7 21,4 3 2 18 10 SW 1018,5 14 0,0
02.07.2020 09:00:00 17,7 15,0 16,8 21,8 21,4 7 4 13 7 W 1018,2 21 0,0
02.07.2020 08:00:00 18,2 13,7 17,6 21,8 21,4 6 3 11 6 W 1017,5 60 0,0
02.07.2020 07:00:00 18,0 14,1 17,6 21,9 21,4 5 3 15 8 WNW 1017,0 59 0,0
02.07.2020 06:00:00 18,1 14,0 17,7 21,9 21,4 7 4 12 6 WNW 1016,6 60 0,0
02.07.2020 05:00:00 18,3 14,2 17,8 22,0 21,4 6 3 13 7 WNW 1016,6 60 0,0
02.07.2020 04:00:00 18,6 13,9 18,0 22,0 21,4 6 4 12 6 W 1016,9 60 0,0
02.07.2020 03:00:00 18,9 14,2 18,4 22,1 21,4 8 4 19 10 W 1017,1 60 0,0
02.07.2020 02:00:00 18,9 14,4 18,4 22,1 21,4 9 5 16 9 W 1017,2 60 0,0
02.07.2020 01:00:00 19,2 15,1 18,9 22,1 21,4 11 6 22 12 W 1017,2 60 0,0
02.07.2020 00:00:00 19,3 15,6 18,8 22,1 21,4 6 4 12 7 W 1017,3 60 0,0
01.07.2020 23:00:00 19,2 15,3 18,8 22,1 21,4 8 4 15 8 WNW 1017,0 60 0,0
01.07.2020 22:00:00 19,4 16,1 18,5 22,1 21,4 10 5 21 11 WNW 1016,3 60 0,0
01.07.2020 21:00:00 20,1 17,3 20,3 22,1 21,4 9 5 21 12 WNW 1015,9 60 0,0
01.07.2020 20:00:00 20,8 17,0 21,7 22,1 21,4 14 7 32 17 WNW 1015,8 50 0,0
01.07.2020 19:00:00 21,1 17,5 22,4 22,0 21,4 20 11 34 19 WNW 1015,8 33 0,0
01.07.2020 18:00:00 22,6 17,5 24,9 22,0 21,4 14 8 25 14 W 1015,6 48 0,0
01.07.2020 17:00:00 23,0 18,1 25,9 22,0 21,4 15 8 26 14 W 1015,7 57 0,0
01.07.2020 16:00:00 22,4 18,0 24,8 22,0 21,4 11 6 21 12 W 1015,5 60 0,0
01.07.2020 15:00:00 21,8 17,8 23,8 22,0 21,4 12 6 22 12 W 1015,1 59 0,0
01.07.2020 14:00:00 21,4 17,2 23,5 22,0 21,4 12 6 21 11 W 1014,7 60 0,0
01.07.2020 13:00:00 22,0 17,4 24,5 22,1 21,4 9 5 17 9 WNW 1014,4 42 0,0
01.07.2020 12:00:00 20,7 17,1 20,9 22,1 21,4 9 5 22 12 NW 1014,3 38 0,0
01.07.2020 11:00:00 20,2 16,8 20,7 22,1 21,4 14 8 21 11 W 1013,9 59 0,0
01.07.2020 10:00:00 20,3 17,3 21,6 22,2 21,4 14 8 22 12 NW 1013,0 59 0,0
01.07.2020 09:00:00 19,4 17,4 19,1 22,3 21,4 7 4 19 10 N 1013,0 58 0,0
01.07.2020 08:00:00 19,0 17,1 17,4 22,3 21,4 9 5 15 8 NNW 1012,6 48 0,0
01.07.2020 07:00:00 17,6 16,5 16,5 22,4 21,4 2 1 10 5 NNW 1012,3 49 0,0
01.07.2020 06:00:00 17,7 16,4 16,8 22,4 21,4 7 4 11 6 N 1011,9 54 0,0
01.07.2020 05:00:00 17,8 16,3 16,9 22,4 21,4 5 3 16 9 N 1012,0 59 0,0
01.07.2020 04:00:00 18,1 16,6 17,4 22,5 21,4 11 6 18 10 N 1011,5 56 0,0
01.07.2020 03:00:00 18,6 16,7 17,9 22,5 21,4 11 6 18 10 N 1012,1 60 0,0
01.07.2020 02:00:00 18,8 16,6 18,1 22,5 21,4 10 5 21 11 N 1012,9 60 0,0
01.07.2020 01:00:00 19,1 16,5 18,4 22,5 21,4 10 5 15 8 N 1013,0 60 0,0
01.07.2020 00:00:00 19,5 16,5 18,7 22,5 21,4 11 6 18 10 N 1013,1 60 0,0
30.06.2020 23:00:00 19,8 16,4 18,7 22,4 21,4 10 5 16 8 NNW 1012,9 60 0,0
30.06.2020 22:00:00 20,5 16,3 19,8 22,3 21,4 8 5 21 11 NNW 1012,8 60 0,0
30.06.2020 21:00:00 21,3 16,0 21,5 22,2 21,4 14 8 23 12 NNW 1012,5 36 0,0
30.06.2020 20:00:00 23,8 16,3 27,4 22,1 21,4 15 8 24 13 NNW 1012,8 32 0,0
30.06.2020 19:00:00 24,8 15,7 30,8 22,0 21,4 15 8 23 13 NW 1012,8 36 0,0
30.06.2020 18:00:00 25,2 15,8 31,6 21,9 21,4 14 8 23 13 NW 1013,6 35 0,0
30.06.2020 17:00:00 24,7 15,6 32,1 21,7 21,4 12 7 21 12 NW 1014,1 44 0,0
30.06.2020 16:00:00 24,8 15,7 31,1 21,7 21,4 12 6 22 12 WNW 1014,8 52 0,0
30.06.2020 15:00:00 24,3 15,0 29,5 21,6 21,4 14 7 24 13 W 1015,3 60 0,0
30.06.2020 14:00:00 23,8 15,3 31,7 21,6 21,4 12 6 23 12 SSW 1015,8 54 0,0
30.06.2020 13:00:00 22,9 15,5 31,2 21,6 21,4 13 7 21 11 SSW 1016,2 60 0,0
30.06.2020 12:00:00 22,5 14,3 25,0 21,6 21,4 8 5 16 9 SSW 1016,5 35 0,0
30.06.2020 11:00:00 21,3 15,4 24,7 21,7 21,4 7 4 18 10 SSW 1016,8 49 0,0
30.06.2020 10:00:00 19,9 14,3 23,5 21,8 21,3 8 4 15 8 S 1017,1 40 0,0
30.06.2020 09:00:00 18,3 13,4 19,2 21,9 21,3 7 4 12 6 S 1017,2 60 0,0
30.06.2020 08:00:00 15,1 13,3 11,7 22,1 21,4 4 2 7 4 SE 1017,4 44 0,0
30.06.2020 07:00:00 12,1 11,3 8,5 22,1 21,4 5 3 6 4 E 1017,3 31 0,0
30.06.2020 06:00:00 11,5 10,7 7,7 22,2 21,4 3 2 5 3 E 1017,5 44 0,0
30.06.2020 05:00:00 11,5 10,1 8,2 22,3 21,3 2 1 5 3 E 1017,8 47 0,0
30.06.2020 04:00:00 12,0 10,2 8,1 22,4 21,4 2 1 4 2 E 1018,2 53 0,0
30.06.2020 03:00:00 12,2 10,6 7,8 22,4 21,3 0 0 2 1 N 1018,6 60 0,0
30.06.2020 02:00:00 13,4 11,5 7,9 22,5 21,3 0 0 4 2 N 1019,0 60 0,0
30.06.2020 01:00:00 13,7 11,4 8,2 22,5 21,4 0 0 5 3 N 1019,4 60 0,0
30.06.2020 00:00:00 14,8 11,9 9,6 22,5 21,3 4 2 7 4 W 1019,5 60 0,0
29.06.2020 23:00:00 15,4 11,6 10,1 22,5 21,4 3 2 8 4 W 1019,5 60 0,0
29.06.2020 22:00:00 16,6 11,5 13,7 22,4 21,3 5 3 14 8 W 1019,3 60 0,0
29.06.2020 21:00:00 18,8 11,6 20,4 22,3 21,3 9 5 19 10 WNW 1019,4 32 0,0
29.06.2020 20:00:00 19,4 11,7 22,3 22,2 21,3 12 6 25 14 NW 1019,4 27 0,0
29.06.2020 19:00:00 20,3 11,5 26,0 22,2 21,4 13 7 25 13 WNW 1019,8 27 0,0
29.06.2020 18:00:00 21,2 11,8 28,4 22,1 21,3 16 8 26 14 NW 1020,1 23 0,0
29.06.2020 17:00:00 21,3 11,0 28,4 22,0 21,3 11 6 29 16 WNW 1020,4 27 0,0
29.06.2020 16:00:00 21,3 11,3 29,0 22,0 21,2 13 7 27 15 NW 1020,6 31 0,0
29.06.2020 15:00:00 21,4 11,1 29,0 22,0 21,3 15 8 29 16 NW 1021,1 37 0,0
29.06.2020 14:00:00 20,7 11,3 24,2 22,0 21,3 12 6 29 16 W 1021,4 47 0,0
29.06.2020 13:00:00 21,2 12,6 23,3 22,0 21,3 16 8 29 16 WNW 1021,7 59 0,0
29.06.2020 12:00:00 20,0 12,2 23,0 22,0 21,3 14 7 27 14 WNW 1021,4 34 0,0
29.06.2020 11:00:00 20,2 13,2 20,0 22,1 21,3 17 9 29 16 NW 1021,1 44 0,0
29.06.2020 10:00:00 18,7 13,1 19,3 22,2 21,3 16 8 35 19 NW 1020,9 57 0,0
29.06.2020 09:00:00 19,3 14,1 20,8 22,2 21,3 13 7 31 17 NNW 1020,8 35 0,0
29.06.2020 08:00:00 19,0 14,3 17,3 22,3 21,3 13 7 29 15 NNW 1020,3 37 0,0
29.06.2020 07:00:00 17,6 13,9 16,9 22,3 21,3 8 4 23 12 NW 1020,2 60 0,0
29.06.2020 06:00:00 18,0 14,7 17,4 22,4 21,3 15 8 29 16 NW 1019,5 60 0,0
29.06.2020 05:00:00 18,3 14,6 17,5 22,4 21,3 10 6 27 15 W 1019,1 60 0,0
29.06.2020 04:00:00 18,3 14,4 17,5 22,5 21,3 16 9 31 17 W 1019,0 60 0,0
29.06.2020 03:00:00 19,2 15,3 19,0 22,5 21,3 16 8 35 19 W 1019,2 60 0,0
29.06.2020 02:00:00 19,9 17,5 19,7 22,5 21,3 16 9 30 16 W 1019,3 56 0,0
29.06.2020 01:00:00 20,0 17,4 19,9 22,5 21,3 15 8 28 15 WSW 1019,5 60 0,0
29.06.2020 00:00:00 20,2 17,0 19,9 22,5 21,3 14 7 25 13 WSW 1019,6 60 0,0
28.06.2020 23:00:00 20,2 17,2 19,8 22,4 21,2 10 6 21 11 SW 1019,3 60 0,0
28.06.2020 22:00:00 20,3 16,7 20,1 22,4 21,3 9 5 19 11 WSW 1019,3 60 0,0
28.06.2020 21:00:00 20,9 16,3 21,0 22,3 21,3 10 6 20 11 W 1019,2 57 0,0
28.06.2020 20:00:00 21,5 16,2 22,8 22,3 21,3 12 7 23 12 W 1019,1 41 0,0
28.06.2020 19:00:00 22,6 16,6 24,9 22,2 21,3 13 7 23 12 W 1019,0 27 0,0
28.06.2020 18:00:00 23,2 16,5 27,4 22,1 21,3 13 7 23 13 SW 1019,2 31 0,0
28.06.2020 17:00:00 23,4 16,7 27,8 22,0 21,2 15 8 25 13 SW 1019,2 29 0,0
28.06.2020 16:00:00 23,7 17,0 29,1 22,1 21,3 17 9 24 13 SSW 1019,4 37 0,0
28.06.2020 15:00:00 24,1 16,4 28,8 22,1 21,3 13 7 25 13 W 1019,6 20 0,0
28.06.2020 14:00:00 22,6 16,4 24,6 22,1 21,3 13 7 23 13 SW 1019,7 19 0,0
28.06.2020 13:00:00 20,5 16,7 22,1 22,1 21,2 8 5 22 12 SSW 1020,1 43 0,0
28.06.2020 12:00:00 20,4 16,4 21,6 22,2 21,2 13 7 22 12 SW 1020,1 33 0,0
28.06.2020 11:00:00 20,5 15,9 21,4 22,3 21,3 8 4 16 8 WSW 1020,0 38 0,0
28.06.2020 10:00:00 20,2 16,0 20,7 22,3 21,2 9 5 14 7 S 1019,8 56 0,0
28.06.2020 09:00:00 19,7 16,0 19,7 22,4 21,2 4 2 8 4 W 1019,7 60 0,0
28.06.2020 08:00:00 19,1 16,1 17,9 22,4 21,2 4 2 7 4 SW 1019,3 59 0,0
28.06.2020 07:00:00 18,0 15,4 16,3 22,5 21,2 0 0 7 4 N 1018,9 60 0,0
28.06.2020 06:00:00 18,3 15,2 16,9 22,5 21,2 4 2 10 5 WSW 1019,0 60 0,0
28.06.2020 05:00:00 19,0 15,3 18,4 22,6 21,2 6 3 14 8 W 1018,9 60 0,0
28.06.2020 04:00:00 19,2 14,7 17,7 22,6 21,2 9 5 15 8 NW 1018,6 60 0,0
28.06.2020 03:00:00 18,8 14,7 17,5 22,6 21,2 6 3 16 8 NW 1018,4 60 0,0
28.06.2020 02:00:00 19,2 14,9 17,4 22,7 21,2 5 3 14 7 NW 1018,6 60 0,0
28.06.2020 01:00:00 19,8 16,4 19,3 22,7 21,2 8 5 16 8 NW 1018,9 60 0,0
28.06.2020 00:00:00 20,0 17,6 19,4 22,6 21,2 8 5 22 12 NW 1018,7 56 0,0
27.06.2020 23:00:00 20,1 17,7 19,7 22,6 21,2 13 7 23 13 NNW 1018,1 60 0,0
27.06.2020 22:00:00 21,0 15,8 20,4 22,5 21,2 11 6 22 12 NNW 1017,2 60 0,0
27.06.2020 21:00:00 22,2 15,8 22,3 22,5 21,2 9 5 16 9 N 1016,6 60 0,0
27.06.2020 20:00:00 23,3 14,6 24,2 22,4 21,2 9 5 18 10 NW 1016,7 20 0,0
27.06.2020 19:00:00 25,4 14,8 29,4 22,2 21,2 9 5 22 12 NW 1016,5 30 0,0
27.06.2020 18:00:00 24,9 15,5 29,0 22,1 21,2 13 7 23 12 WNW 1016,8 19 0,0
27.06.2020 17:00:00 25,8 16,1 29,7 22,0 21,2 14 8 25 13 W 1016,8 32 0,0
27.06.2020 16:00:00 25,7 15,7 32,6 21,9 21,2 10 6 27 14 WNW 1016,8 36 0,0
27.06.2020 15:00:00 25,3 15,0 31,4 21,8 21,2 15 8 26 14 WNW 1016,9 48 0,0
27.06.2020 14:00:00 24,7 15,1 29,3 21,8 21,2 14 7 24 13 W 1016,7 40 0,0
27.06.2020 13:00:00 25,0 15,0 29,7 21,8 21,2 11 6 23 12 WSW 1016,6 10 0,0
27.06.2020 12:00:00 25,1 15,7 30,9 21,8 21,2 8 4 19 10 SSW 1016,1 38 0,0
27.06.2020 11:00:00 23,8 16,6 27,6 21,9 21,2 9 5 18 10 SSW 1015,9 19 0,0
27.06.2020 10:00:00 22,4 17,3 26,7 21,9 21,2 12 7 19 10 S 1015,7 30 0,2
27.06.2020 09:00:00 20,1 16,7 22,9 22,0 21,1 10 5 16 9 S 1015,5 30 0,0
27.06.2020 08:00:00 18,6 16,7 16,4 22,1 21,1 10 5 16 9 SSW 1015,4 31 0,0
27.06.2020 07:00:00 16,9 16,4 15,3 22,2 21,1 11 6 19 10 S 1015,4 29 0,0
27.06.2020 06:00:00 16,1 15,8 13,5 22,3 21,1 13 7 18 10 S 1015,1 11 0,0
27.06.2020 05:00:00 14,5 14,2 11,8 22,4 21,1 11 6 13 7 SE 1015,3 14 0,0
27.06.2020 04:00:00 14,2 13,6 11,1 22,4 21,1 2 1 8 4 SSE 1015,2 20 0,0
27.06.2020 03:00:00 14,8 13,7 12,7 22,5 21,1 4 2 12 6 ESE 1015,1 30 0,0
27.06.2020 02:00:00 16,6 14,6 14,8 22,5 21,1 4 2 21 11 ESE 1015,2 42 0,0
27.06.2020 01:00:00 17,9 15,3 16,4 22,5 21,1 13 7 19 11 WNW 1014,8 55 0,0
27.06.2020 00:00:00 17,7 15,3 16,5 22,6 21,1 0 0 13 7 N 1015,1 57 0,0
26.06.2020 23:00:00 17,9 15,3 16,2 22,6 21,1 7 4 18 10 W 1014,7 60 0,0
26.06.2020 22:00:00 18,2 15,1 17,2 22,5 21,1 8 4 20 11 W 1014,0 60 0,0
26.06.2020 21:00:00 19,7 16,0 20,8 22,5 21,1 14 8 29 15 WNW 1014,0 34 0,0
26.06.2020 20:00:00 20,6 16,4 23,0 22,4 21,1 17 9 29 15 NW 1013,7 34 0,0
26.06.2020 19:00:00 21,3 17,1 23,5 22,3 21,1 13 7 27 15 WNW 1013,7 32 0,0
26.06.2020 18:00:00 22,9 17,4 25,9 22,3 21,1 11 6 26 14 WNW 1013,8 27 0,0
26.06.2020 17:00:00 24,1 17,3 29,2 22,2 21,1 15 8 31 17 W 1013,8 32 0,0
26.06.2020 16:00:00 23,1 17,6 26,0 22,2 21,0 14 8 27 15 WNW 1014,4 40 0,0
26.06.2020 15:00:00 24,0 18,0 26,7 22,2 21,0 10 5 22 12 W 1014,5 48 0,0
26.06.2020 14:00:00 23,0 16,8 27,0 22,2 21,0 10 5 17 9 SSW 1014,7 27 0,0

tt = Température de l'air
td = dewpoint
tt 5cm = Température de l'air 5cm
tt -20cm = Température de l'air -20cm
tt -100cm = Température de l'air -100cm
ff = Vitesse du vent
fx = gusts
dd = Direction du vent
ppp = reduced air pressure
vv = visibility
rr = Quantités de précipitations

stations d'obs. à proximité